Location: Lachepaillet
(43.4918°N, 1.4874°W)
Time: 02:36:25
(UTC+00:00)

Cosmos 2100 Rocket - Pass Details

Date: 15 May 2026
Orbit: 956 x 999 km, 82.9° (Epoch: 8 June)

Event Time Altitude Azimuth Distance (km) Brightness Sun altitude
Rises 19:55:51 0° 191° (S) 3,651 6.8 -5.8°
Reaches altitude 10° 19:58:21 10° 192° (SSW) 2,714 6.1 -6.2°
Maximum altitude 20:04:34 76° 278° (W) 1,014 4.3 -7.1°
Drops below altitude 10° 20:10:55 10° 5° (N) 2,761 6.8 -8.1°
Sets 20:13:28 0° 7° (N) 3,719 7.5 -8.5°
